DW6513 Weather Reports


Display with metric or nautical units.
time (UTC)temp
F
wind
direction
speed
MPH
gust
MPH
rain 1hr
in
rain 24hr
in
rain mn
in
humidity
%
barometer
mb
20260502202803 64 10 2.0 5.0 0.00 0.00 0.00 36 1020.0
20260502202304 64 278 3.0 7.0 0.00 0.00 0.00 36 1020.0
20260502201803 67 123 2.0 5.0 0.00 0.00 0.00 36 1020.0
20260502201303 68 211 2.0 5.0 0.00 0.00 0.00 38 1020.0
20260502200803 68 145 2.0 6.0 0.00 0.00 0.00 38 1020.3
20260502200303 67 146 2.0 7.0 0.00 0.00 0.00 37 1020.3
20260502195802 68 145 2.0 5.0 0.00 0.00 0.00 38 1020.3
20260502195304 66 166 2.0 5.0 0.00 0.00 0.00 39 1020.3
20260502194802 66 190 2.0 3.0 0.00 0.00 0.00 39 1020.7
20260502193803 67 347 2.0 9.0 0.00 0.00 0.00 37 1020.7
20260502192803 65 347 3.0 9.0 0.00 0.00 0.00 37 1020.7
20260502192305 66 312 2.0 9.0 0.00 0.00 0.00 37 1020.7
20260502191803 67 123 2.0 3.0 0.00 0.00 0.00 40 1020.7
20260502191303 66 38 2.0 5.0 0.00 0.00 0.00 41 1020.7
20260502190303 64 32 3.0 5.0 0.00 0.00 0.00 41 1020.8
20260502185803 63 303 2.0 7.0 0.00 0.00 0.00 41 1020.8
20260502185305 63 303 2.0 6.0 0.00 0.00 0.00 42 1020.8
20260502184803 60 190 2.0 5.0 0.00 0.00 0.00 42 1020.7
20260502184303 59 190 3.0 7.0 0.00 0.00 0.00 43 1020.7
20260502183803 59 10 5.0 7.0 0.00 0.00 0.00 42 1020.7
20260502182802 60 347 5.0 10.0 0.00 0.00 0.00 40 1020.7
20260502182304 61 347 5.0 20.0 0.00 0.00 0.00 41 1020.7
20260502181803 60 347 5.0 20.0 0.00 0.00 0.00 41 1020.7
20260502181303 60 256 5.0 9.0 0.00 0.00 0.00 40 1020.7
20260502180303 60 280 3.0 3.0 0.00 0.00 0.00 39 1021.0
20260502170303 57 166 3.0 8.0 0.00 0.00 0.00 52 1021.3
20260502164303 58 67 2.0 8.0 0.00 0.00 0.00 53 1021.2
20260502163804 58 123 1.0 5.0 0.00 0.00 0.00 55 1021.2
20260502163303 58 192 1.0 5.0 0.00 0.00 0.00 57 1021.2
20260502162805 58 145 1.0 0.0 0.00 0.00 0.00 60 1021.3
20260502161803 58 145 2.0 2.0 0.00 0.00 0.00 57 1021.3
20260502161303 57 224 2.0 7.0 0.00 0.00 0.00 59 1021.3
20260502160803 57 347 1.0 7.0 0.00 0.00 0.00 58 1020.7
20260502160303 57 311 1.0 2.0 0.00 0.00 0.00 56 1020.7
20260502152305 58 134 3.0 5.0 0.00 0.00 0.00 58 1020.5
20260502151803 57 303 3.0 9.0 0.00 0.00 0.00 58 1020.5
20260502151303 57 325 2.0 9.0 0.00 0.00 0.00 59 1020.5
20260502150803 57 347 2.0 6.0 0.00 0.00 0.00 60 1020.5
20260502150303 56 76 2.0 6.0 0.00 0.00 0.00 59 1020.5
20260502130303 51 97 1.0 5.0 0.00 0.00 0.00 77 1019.8
20260502122803 49 303 1.0 2.0 0.00 0.00 0.00 78 1019.7
20260502122305 49 353 1.0 5.0 0.00 0.00 0.00 78 1019.7
20260502121803 49 325 0.0 5.0 0.00 0.00 0.00 78 1019.7
20260502120803 48 167 0.0 3.0 0.00 0.00 0.00 78 1019.4
20260502120303 48 243 0.0 0.0 0.00 0.00 0.00 78 1019.4
20260502115803 48 303 0.0 2.0 0.00 0.00 0.00 77 1019.4
20260502115305 48 347 0.0 2.0 0.00 0.00 0.00 77 1019.4
20260502114803 48 190 0.0 0.0 0.00 0.00 0.00 76 1018.9
20260502114303 48 275 0.0 0.0 0.00 0.00 0.00 76 1018.9
20260502113303 48 317 0.0 0.0 0.00 0.00 0.00 76 1018.9
20260502112803 48 325 0.0 0.0 0.00 0.00 0.00 76 1018.9
20260502112305 48 347 0.0 0.0 0.00 0.00 0.00 76 1018.9
20260502111803 48 303 0.0 0.0 0.00 0.00 0.00 75 1018.9
20260502111303 48 333 0.0 0.0 0.00 0.00 0.00 75 1018.9
20260502110303 48 347 0.0 2.0 0.00 0.00 0.00 74 1018.6
20260502105803 48 10 0.0 2.0 0.00 0.00 0.00 74 1018.6
20260502105306 48 317 0.0 0.0 0.00 0.00 0.00 73 1018.6
20260502104804 48 10 0.0 0.0 0.00 0.00 0.00 73 1018.2
20260502104304 48 332 0.0 0.0 0.00 0.00 0.00 73 1018.2
20260502103803 48 325 0.0 0.0 0.00 0.00 0.00 72 1018.2
20260502103303 48 318 0.0 0.0 0.00 0.00 0.00 72 1018.2
20260502102804 49 325 0.0 0.0 0.00 0.00 0.00 71 1018.3
20260502102306 49 19 0.0 0.0 0.00 0.00 0.00 71 1018.3
20260502101303 49 347 0.0 0.0 0.00 0.00 0.00 69 1018.3
20260502100803 50 303 0.0 0.0 0.00 0.00 0.00 69 1018.3
20260502100304 50 303 0.0 0.0 0.00 0.00 0.00 68 1018.3
20260502091303 52 255 0.0 0.0 0.00 0.00 0.00 65 1018.1
20260502090804 52 238 0.0 0.0 0.00 0.00 0.00 65 1018.1
20260502071303 53 176 0.0 3.0 0.00 0.00 0.00 61 1018.2
20260502070804 53 257 0.0 3.0 0.00 0.00 0.00 61 1018.7
20260502065804 54 167 1.0 5.0 0.00 0.00 0.00 59 1018.7
20260502065306 54 240 2.0 5.0 0.00 0.00 0.00 57 1018.7
20260502064804 54 325 2.0 6.0 0.00 0.00 0.00 54 1018.0
20260502064304 55 347 1.0 9.0 0.00 0.00 0.00 53 1018.0
20260502063803 54 347 0.0 9.0 0.00 0.00 0.00 53 1018.0
20260502063304 54 108 0.0 2.0 0.00 0.00 0.00 54 1018.0
20260502062803 54 123 1.0 2.0 0.00 0.00 0.00 54 1018.2
20260502062306 54 180 1.0 3.0 0.00 0.00 0.00 54 1018.2
20260502061804 54 167 1.0 3.0 0.00 0.00 0.00 55 1018.2
20260502061303 54 131 1.0 3.0 0.00 0.00 0.00 54 1018.2
20260502060803 54 145 1.0 3.0 0.00 0.00 0.00 54 1018.2
20260502060304 54 145 1.0 3.0 0.00 0.00 0.00 54 1018.2
20260502054804 55 145 0.0 2.0 0.00 0.00 0.00 53 1018.3
20260502054303 55 198 0.0 0.0 0.00 0.00 0.00 51 1018.3
20260502053303 55 308 0.0 0.0 0.00 0.00 0.00 50 1018.3
20260502052803 55 325 0.0 0.0 0.00 0.00 0.00 51 1018.2
20260502052306 55 325 0.0 0.0 0.00 0.00 0.00 51 1018.2
20260502051804 56 303 0.0 0.0 0.00 0.00 0.00 51 1018.2
20260502051304 55 283 0.0 0.0 0.00 0.00 0.00 51 1018.2
20260502050819 55 145 0.0 0.0 0.00 0.00 0.00 52 1018.2
20260502045306 55 145 0.0 0.0 0.00 0.00 0.00 54 1018.2
20260502044804 55 145 0.0 0.0 0.00 0.00 0.00 54 1018.3
20260502044304 55 145 0.0 0.0 0.00 0.00 0.00 53 1018.3
20260502043804 55 145 0.0 0.0 0.00 0.00 0.00 53 1018.3
20260502041804 56 145 0.0 0.0 0.00 0.00 0.00 49 1018.1
20260502040803 56 145 0.0 0.0 0.00 0.00 0.00 50 1018.2
20260502035306 56 167 0.0 0.0 0.00 0.00 0.00 48 1018.2
20260502034803 56 167 0.0 0.0 0.00 0.00 0.00 48 1018.5
20260502034303 56 167 0.0 0.0 0.00 0.00 0.00 48 1018.5
20260502033804 56 167 0.0 0.0 0.00 0.00 0.00 48 1018.5
20260502033304 56 167 0.0 0.0 0.00 0.00 0.00 47 1018.5
20260502032804 56 167 0.0 0.0 0.00 0.00 0.00 47 1018.7
20260502032305 56 167 0.0 0.0 0.00 0.00 0.00 47 1018.7
20260502031304 56 152 0.0 0.0 0.00 0.00 0.00 47 1018.7
20260502030804 56 145 0.0 0.0 0.00 0.00 0.00 47 1018.6
20260502030304 56 145 0.0 0.0 0.00 0.00 0.00 46 1018.6
20260502025804 57 213 0.0 0.0 0.00 0.00 0.00 45 1018.6
20260502025306 57 145 0.0 0.0 0.00 0.00 0.00 45 1018.6
20260502024804 57 325 0.0 0.0 0.00 0.00 0.00 45 1018.3
20260502024303 57 333 0.0 0.0 0.00 0.00 0.00 44 1018.3
20260502023804 57 167 0.0 0.0 0.00 0.00 0.00 43 1018.3
20260502023304 57 167 0.0 0.0 0.00 0.00 0.00 44 1018.3
20260502022831 57 167 0.0 0.0 0.00 0.00 0.00 44 1017.9
20260502021804 57 167 0.0 0.0 0.00 0.00 0.00 45 1017.9
20260502020804 56 167 0.0 0.0 0.00 0.00 0.00 42 1017.6
20260502020304 57 145 0.0 0.0 0.00 0.00 0.00 40 1017.6
20260502015803 57 145 0.0 0.0 0.00 0.00 0.00 38 1017.6
20260502014804 58 145 0.0 0.0 0.00 0.00 0.00 36 1017.3
20260502014303 58 145 0.0 0.0 0.00 0.00 0.00 36 1017.3
20260502013804 58 145 0.0 0.0 0.00 0.00 0.00 36 1017.3
20260502013304 58 145 0.0 0.0 0.00 0.00 0.00 36 1017.3
20260502012804 58 145 0.0 0.0 0.00 0.00 0.00 36 1016.8
20260502012306 58 145 0.0 0.0 0.00 0.00 0.00 36 1016.8
20260502011803 59 145 0.0 0.0 0.00 0.00 0.00 36 1016.8
20260502011304 59 145 0.0 0.0 0.00 0.00 0.00 36 1016.8
20260502010804 59 145 0.0 0.0 0.00 0.00 0.00 36 1016.3
20260502010304 59 145 0.0 0.0 0.00 0.00 0.00 36 1016.3
20260502005803 59 145 0.0 0.0 0.00 0.00 0.00 36 1016.3
20260502005306 60 145 0.0 0.0 0.00 0.00 0.00 35 1016.3
20260502004304 60 123 0.0 0.0 0.00 0.00 0.00 33 1016.4
20260502003804 61 347 0.0 0.0 0.00 0.00 0.00 33 1016.4
20260502003303 61 254 0.0 0.0 0.00 0.00 0.00 33 1016.4
20260502002804 61 347 1.0 3.0 0.00 0.00 0.00 32 1016.4
20260502002305 61 145 1.0 3.0 0.00 0.00 0.00 32 1016.4
20260502001804 62 167 2.0 3.0 0.00 0.00 0.00 31 1016.4
20260502000804 62 167 2.0 3.0 0.00 0.00 0.00 31 1016.7
20260502000304 62 280 3.0 13.0 0.00 0.00 0.00 30 1016.7
20260501235305 62 218 2.0 5.0 0.00 0.00 0.00 30 1016.7
20260501234804 62 347 3.0 8.0 0.00 0.00 0.00 29 1016.1
20260501234304 62 322 5.0 8.0 0.00 0.00 0.00 29 1016.1
20260501233804 63 325 5.0 10.0 0.00 0.00 0.00 30 1016.1
20260501233304 63 297 3.0 7.0 0.00 0.00 0.00 29 1016.1
20260501232804 63 190 2.0 12.0 0.00 0.00 0.00 29 1015.7
20260501231804 64 347 5.0 18.0 0.00 0.00 0.00 28 1015.7
20260501231303 65 167 5.0 18.0 0.00 0.00 0.00 28 1015.7
20260501230803 66 347 6.0 7.0 0.00 0.00 0.00 27 1015.7
20260501230303 67 217 5.0 10.0 0.00 0.00 0.00 27 1015.7
20260501225802 68 325 4.0 5.0 0.00 0.00 0.00 27 1015.7
20260501225305 68 332 3.0 12.0 0.00 0.00 0.00 27 1015.7
20260501224802 68 347 3.0 12.0 0.00 0.00 0.00 27 1016.3
20260501223803 69 303 2.0 8.0 0.00 0.00 0.00 28 1016.3
20260501223303 69 339 2.0 8.0 0.00 0.00 0.00 28 1016.3
20260501222803 67 325 2.0 6.0 0.00 0.00 0.00 28 1017.3
20260501221803 67 347 5.0 15.0 0.00 0.00 0.00 28 1017.3
20260501221303 68 189 3.0 15.0 0.00 0.00 0.00 29 1015.6
20260501220802 68 303 5.0 6.0 0.00 0.00 0.00 29 1015.2
20260501220302 67 282 5.0 14.0 0.00 0.00 0.00 28 1015.2
20260501215305 70 10 3.0 9.0 0.00 0.00 0.00 28 1015.2
20260501214803 69 347 3.0 9.0 0.00 0.00 0.00 29 1014.8
20260501213803 68 347 5.0 13.0 0.00 0.00 0.00 30 1014.8
20260501213303 67 145 6.0 13.0 0.00 0.00 0.00 30 1014.8
20260501212802 66 347 6.0 12.0 0.00 0.00 0.00 30 1016.3
20260501212306 66 153 5.0 12.0 0.00 0.00 0.00 30 1016.3
20260501211302 63 332 4.0 3.0 0.00 0.00 0.00 32 1016.3
20260501205802 65 33 4.0 14.0 0.00 0.00 0.00 32 1016.4
20260501205305 63 317 3.0 14.0 0.00 0.00 0.00 31 1016.4
20260501204802 63 303 3.0 8.0 0.00 0.00 0.00 32 1016.6
20260501204303 63 2 3.0 16.0 0.00 0.00 0.00 32 1016.6
20260501203803 63 347 2.0 8.0 0.00 0.00 0.00 33 1016.6